www.pogodaiklimat.ru

Погода и климат >> Архив погоды >> Китай >> Xin Barag Youqi


ПОГОДА в Xin Barag Youqi

  • Прогноз погоды в Xin Barag Youqi
  • Монитор погоды в Xin Barag Youqi
  • Климат города

АРХИВ ПОГОДЫ в Xin Barag Youqi

Время (UTC), дата Ветер
(напр.,м/с)
 
Видим.   Явления Облачность Т
(С)
Тd
(С)
f
(%)
Тe
(С)
Тes
(С)
Комфортность P
(гПа)
Po
(гПа)
Тmin
(С)
Tmax
(С)
R
(мм)
R24
(мм)
S
(см)
03 13.11 С 15
{18}
17 км {снег} 6/6 1000 м
[]
-6.1 -12.0 63 -17 -17 1012.5 1013.0
06 13.11 С 11
{18}
29 км {ливн. осадки, снег} 8/8 1000 м
[]
-5.1 -12.5 56 -15 -15 1012.2 1036.8 -12.7 0.0
09 13.11 С 7 30 км 3/3
[]
-7.5 -15.2 54 -16 -16 1014.5 1015.0
12 13.11 СЗ 7 30 км 4/4
[]
-8.9 -17.7 49 -18 -18 1015.6 946.8
15 13.11 СЗ 12 30 км ?/? -10.8 -19.4 49 -22 -22 1015.1 923.8
18 13.11 С 11 30 км ?/? -11.4 -18.0 58 -23 -23 1014.8 946.5 -4.4
21 13.11 СЗ 10 30 км н/о -12.4 -16.4 72 -24 -24 1015.3 1015.0
00 14.11 С 12 15 км 10/10
[]
-12.3 -16.3 72 -24 -24 1016.9 947.8 0.0
03 14.11 С 13 30 км {снег} 4/4 1000 м
[]
-10.1 -15.6 64 -22 -22 1017.6 1018.0
06 14.11 С 10 30 км {снег} [диам. гололёда 120 мм] 3/3 1000 м
[]
-8.0 -14.2 61 -18 -18 1017.4 1041.6 -12.5 0.0
09 14.11 С 4 30 км 4/4 1000 м
[]
-10.3 -14.5 71 -17 -17 1019.2 1019.0
12 14.11 З 3 30 км 8/8
[]
-12.2 -15.7 75 -18 -18 1020.8 951.0 0.0
15 14.11 СЗ 4 30 км н/о -13.7 -17.7 72 -21 -21 1021.3 1021.0
18 14.11 С 6 30 км ?/? -14.5 -18.9 69 -24 -24 1021.2 1044.7 -7.8
21 14.11 СЗ 7 30 км н/о -16.1 -20.0 72 -27 -27 1022.3 1022.0
00 15.11 СЗ 6 30 км 1/1
[]
-16.8 -20.8 71 -27 -27 1023.9 953.3
03 15.11 С 6 30 км 1/1
[]
-10.9 -18.4 54 -19 -19 1023.2 1023.0
06 15.11 С 5 30 км ясно -8.3 -17.9 46 -16 -15 1022.0 952.4 -17.2
09 15.11 С 1 30 км ясно -11.8 -19.7 52 -14 -14 1022.5 928.8
12 15.11 З 4 30 км ясно -15.1 -20.7 62 -23 -23 1023.0 952.1
15 15.11 З 2 30 км н/о -18.1 -22.9 66 -24 -24 1021.9 1022.0
18 15.11 З 3 30 км ?/? -19.7 -23.6 71 -27 -27 1021.1 950.9 -8.0
21 15.11 З 2 30 км н/о -21.1 -24.2 76 -27 -27 1020.8 1021.0
00 16.11 ЮЗ 1 30 км 1/1
[]
-21.7 -24.8 76 -25 -25 1021.7 950.3
03 16.11 Ю 1 23 км 9/9
[]
-14.2 -20.3 60 -17 -16 1021.7 1022.0
06 16.11 СЗ 2 30 км 9/9
[]
-8.3 -20.7 36 -12 -12 1020.4 1046.1 -22.4
09 16.11 С 4 30 км 9/9
[]
-12.3 -20.8 49 -19 -19 1022.7 1023.0
12 16.11 С 3 30 км 9/9
[]
-12.1 -20.2 51 -18 -18 1024.8 953.5
15 16.11 СЗ 4 30 км н/о -16.5 -21.5 65 -25 -25 1026.0 931.1
18 16.11 С 7 30 км ?/? -14.8 -19.7 66 -25 -25 1025.8 955.9 -7.3
21 16.11 СЗ 9 30 км н/о -15.9 -21.5 62 -28 -28 1027.7 1028.0
00 17.11 С 7 30 км 1/1
[]
-16.7 -22.1 63 -27 -27 1029.9 959.0
03 17.11 С 15
{18}
18 км 3/3
[]
-13.3 -22.7 45 -27 -27 1031.3 1031.0
06 17.11 С 12
{18}
30 км 4/4
[]
-10.9 -22.2 39 -22 -22 1030.6 1055.4 -16.9
09 17.11 С 4
{18}
30 км 6/6
[]
-13.7 -23.3 44 -21 -21 1031.7 1032.0
12 17.11 З 3 30 км 3/3
[]
-18.1 -25.4 53 -25 -25 1032.5 960.6
15 17.11 З 4 30 км ?/? -18.8 -25.4 56 -27 -27 1031.2 936.0
18 17.11 З 3 30 км ?/? -19.1 -25.3 58 -27 -27 1029.5 958.4 -10.7
21 17.11 З 2 30 км ?/? -21.5 -26.3 65 -28 -28 1028.1 1028.0
00 18.11 З 4 30 км 3/3
[]
-20.0 -25.1 64 -29 -29 1027.4 955.4
03 18.11 С 6 30 км 9/9
[]
-11.3 -17.7 59 -20 -20 1025.8 1026.0
06 18.11 С 7 30 км 3/3 1000 м
[]
-10.6 -18.8 51 -20 -19 1025.9 1051.1 -21.8
09 18.11 С 6 30 км 3/3
[]
-14.2 -22.8 48 -24 -24 1028.6 1029.0
12 18.11 СЗ 3 30 км 3/3
[]
-18.7 -25.3 56 -26 -26 1030.5 958.2
15 18.11 СЗ 2 30 км ?/? -19.1 -25.7 56 -25 -25 1029.4 1029.0
18 18.11 З 2 30 км ?/? -18.7 -25.1 57 -24 -24 1028.2 957.3 -10.1
21 18.11 ЮВ 2 30 км ?/? -18.5 -24.3 60 -24 -24 1026.6 932.0
00 19.11 ЮЗ 3 11 км слабый снег 9/9
[]
-15.4 -20.3 66 -22 -22 1025.0 953.7 0.0
03 19.11 З 3 30 км 8/8
[]
-10.3 -17.6 55 -16 -16 1023.2 1023.0
06 19.11 С 2 30 км 9/9
[]
-5.9 -14.2 52 -10 -10 1020.9 1046.0 -20.3
09 19.11 С 3 30 км 4/4
[]
-9.1 -14.1 67 -15 -15 1022.8 1023.0
12 19.11 З 4 30 км 3/3
[]
-14.3 -16.7 82 -22 -22 1025.0 954.3
15 19.11 З 3 30 км ?/? -16.1 -18.7 80 -23 -23 1026.0 1026.0
18 19.11 З 2 30 км ?/? -13.0 -16.3 76 -18 -18 1025.0 955.7 -5.4
21 19.11 З 4 30 км ?/? -11.4 -14.3 79 -18 -18 1024.3 1024.0
00 20.11 З 4 30 км 8/8
[]
-10.9 -13.7 80 -18 -18 1023.6 953.6

 

Местоположение метеостанции Xin Barag Youqi (Китай): широта 48.67 долгота 116.81 высота над уровнем моря 556 м.

В архиве по умолчанию представлена погода в Xin Barag Youqi за последнюю неделю. Архивные данные за месяц целиком и за предыдущие месяцы, начиная с января 2011 года, Вы можете получить, выбрав интересующий диапазон дат из раскрывающегося списка и нажав кнопку "Ввод!".

Внимание! Время в таблицах - всемирное. Для получения местного времени необходимо прибавить поправку, которая в Xin Barag Youqi равна 8 ч.

Смотрите также архив погоды в соседних городах и на ближайших метеорологических станциях:

Погода в Забайкальске (Забайкальский край, Россия) (113 км)
Погода в Соловьевске (Забайкальский край, Россия) (159 км)
Погода в Кайластуе (Забайкальский край, Россия) (168 км)
Погода в Khalkh-Gol (Монголия) (177 км)
Погода в Choibalsan (Монголия) (179 км)
Погода в Matad (Монголия) (189 км)
Погода в Борзе (Забайкальский край, Россия) (194 км)
Погода в Dashbalbar (Монголия) (201 км)
Погода в Hailar (Китай) (223 км)
Погода в Бырке (Забайкальский край, Россия) (236 км)

Пояснения к столбцам:

Ветер - указаны скорость ветра в м/с - средняя за 10 мин, порывы в срок и между сроками (в фигурных скобках) и направление, откуда дует ветер: С - северный, СВ - северо-восточный, В - восточный, ЮВ - юго-восточный, Ю - южный, ЮЗ - юго-западный, З - западный, СЗ - северо-западный.
Видимость - горизонтальная дальность видимости в метрах или километрах. При видимости от 1 до 10 км при отсутствии осадков обычно наблюдается дымка, при ухудшении видимости до 1 км и менее - туман. В сухую погоду видимость может ухудшаться дымом, пылью или мглою.
Явления - указаны атмосферные явления, наблюдавшиеся в срок или в последний час перед сроком; фигурными скобками обозначены явления, наблюдавшиеся между сроками (за 1-3 часа до срока); квадратными скобками обозначены град или гололедные отложения с указанием их диаметра в мм.
Облачность - указаны через наклонную черту общая и нижняя облачность в баллах и высота нижней границы облаков в метрах; квадратными скобками обозначены формы облаков: Ci - перистые, Cs - перисто-слоистые, Cc - перисто-кучевые, Ac - высококучевые, As - высокослоистые, Sc - слоисто-кучевые, Ns - слоисто-дождевые, Cu - кучевые, Cb - кучево-дождевые. Подробнее классификацию облаков см. в Атласе облаков (PDF).
T - Температура воздуха - температура, измеренная на высоте 2 м над землей.
Td - Температура точки росы - температура, при понижении до которой содержащийся в воздухе водяной пар достигнет насыщения.
f - Относительная влажность воздуха - влажноcть воздуха, измеренная на высоте 2 м над землей.
Te - Эффективная температура - температура, которую ощущает одетый по сезону человек в тени. Характеристика душности погоды. При расчете учитывается влияние влажности воздуха и скорости ветра на теплоощущения человека.
Tes - Эффективная температура на солнце - температура, которую ощущает человек, с поправкой на солнечный нагрев. Характеристика знойности погоды. Зависит от высоты солнца над горизонтом, облачности и скорости ветра. Ночью, в пасмурную погоду, а также при ветре 12 м/с и более поправка равна нулю.
P - Атмосферное давление - приведенное к уровню моря атмосферное давление.
Po - Атмосферное давление - измеренное на уровне метеостанции атмосферное давление.
Tmin - Минимальная температура - минимум температуры воздуха на высоте 2 м над землей.
Tmax - Максимальная температура - максимум температуры воздуха на высоте 2 м над землей.
R - Количество осадков - Количество выпавших осадков за период времени, мм. При наведении курсора мыши на число - период времени, за который выпало указанное количество осадков.
R24 - Количество осадков - Количество выпавших осадков за 24 часа, мм.
S - Снежный покров - Высота снежного покрова, см. При наведении курсора мыши на число - состояние снежного покрова и степень покрытия местности в баллах.